TimeEDT,TemperatureF,Dew PointF,Humidity,Sea Level PressureIn,VisibilityMPH,Wind Direction,Wind SpeedMPH,Gust SpeedMPH,PrecipitationIn,Events,Conditions,WindDirDegrees,DateUTC
12:15 AM,48.2,48.2,100,30.02,7.0,NW,5.8,-,N/A,,Clear,310,2013-09-25 04:15:00
12:35 AM,50.0,50.0,100,30.01,10.0,NW,3.5,-,N/A,,Clear,320,2013-09-25 04:35:00
12:55 AM,49.1,49.1,100,30.02,7.0,Calm,Calm,-,N/A,,Clear,0,2013-09-25 04:55:00
1:15 AM,47.5,47.5,100,30.02,7.0,Calm,Calm,-,N/A,,Clear,0,2013-09-25 05:15:00
1:35 AM,48.4,48.4,100,30.02,7.0,Calm,Calm,-,N/A,,Clear,0,2013-09-25 05:35:00
1:55 AM,48.0,48.0,100,30.01,3.0,Calm,Calm,-,N/A,,Clear,0,2013-09-25 05:55:00
2:15 AM,47.3,47.3,100,30.01,7.0,Calm,Calm,-,N/A,,Clear,0,2013-09-25 06:15:00
2:35 AM,47.1,47.1,100,30.01,7.0,Calm,Calm,-,N/A,,Clear,0,2013-09-25 06:35:00
2:55 AM,48.6,48.6,100,30.00,2.0,Calm,Calm,-,N/A,,Clear,0,2013-09-25 06:55:00
3:15 AM,47.5,47.5,100,30.00,3.0,Calm,Calm,-,N/A,,Clear,0,2013-09-25 07:15:00
3:35 AM,46.8,46.8,100,30.00,3.0,Calm,Calm,-,N/A,,Clear,0,2013-09-25 07:35:00
3:55 AM,46.4,46.4,100,30.00,5.0,Calm,Calm,-,N/A,,Clear,0,2013-09-25 07:55:00
4:15 AM,46.8,46.8,100,30.00,2.5,Calm,Calm,-,N/A,,Clear,0,2013-09-25 08:15:00
4:35 AM,45.5,45.5,100,29.99,7.0,Calm,Calm,-,N/A,,Clear,0,2013-09-25 08:35:00
4:55 AM,45.7,45.7,100,29.99,4.0,Calm,Calm,-,N/A,,Clear,0,2013-09-25 08:55:00
5:15 AM,46.9,46.9,100,29.99,7.0,Calm,Calm,-,N/A,,Clear,0,2013-09-25 09:15:00
5:35 AM,47.5,47.5,100,29.99,7.0,Calm,Calm,-,N/A,,Clear,0,2013-09-25 09:35:00
5:55 AM,45.7,45.7,100,29.99,5.0,Calm,Calm,-,N/A,,Clear,0,2013-09-25 09:55:00
6:15 AM,47.3,47.3,100,29.99,1.8,Calm,Calm,-,N/A,,Mist,0,2013-09-25 10:15:00
6:35 AM,45.7,45.7,100,30.00,0.8,Calm,Calm,-,N/A,,Mist,0,2013-09-25 10:35:00
6:55 AM,45.5,45.5,100,29.99,0.2,Calm,Calm,-,N/A,Fog,Fog,0,2013-09-25 10:55:00
7:15 AM,45.1,45.1,100,29.99,0.5,Calm,Calm,-,N/A,Fog,Fog,0,2013-09-25 11:15:00
7:35 AM,44.6,44.6,100,30.00,3.0,WNW,3.5,-,N/A,,Clear,300,2013-09-25 11:35:00
7:55 AM,47.5,47.5,100,30.00,3.0,Calm,Calm,-,N/A,,Clear,0,2013-09-25 11:55:00
8:15 AM,50.0,50.0,100,30.00,7.0,Calm,Calm,-,N/A,,Clear,0,2013-09-25 12:15:00
8:35 AM,50.7,50.7,100,30.01,5.0,Calm,Calm,-,N/A,,Clear,0,2013-09-25 12:35:00
8:55 AM,54.5,54.5,100,30.01,10.0,Calm,Calm,-,N/A,,Clear,0,2013-09-25 12:55:00
9:15 AM,55.0,54.7,99,30.02,10.0,Calm,Calm,-,N/A,,Clear,0,2013-09-25 13:15:00
9:35 AM,57.7,57.0,97,30.03,10.0,NNW,3.5,-,N/A,,Clear,340,2013-09-25 13:35:00
9:55 AM,61.2,55.2,81,30.03,10.0,Calm,Calm,-,N/A,,Clear,0,2013-09-25 13:55:00
10:15 AM,63.0,54.7,74,30.03,10.0,North,3.5,-,N/A,,Clear,360,2013-09-25 14:15:00
10:35 AM,64.8,54.0,68,30.03,10.0,Calm,Calm,-,N/A,,Clear,0,2013-09-25 14:35:00
10:55 AM,65.8,54.3,66,30.03,10.0,ENE,5.8,-,N/A,,Clear,70,2013-09-25 14:55:00
11:15 AM,67.8,55.0,64,30.02,10.0,NE,4.6,-,N/A,,Clear,40,2013-09-25 15:15:00
11:35 AM,67.5,53.4,61,30.02,10.0,Calm,Calm,-,N/A,,Clear,0,2013-09-25 15:35:00
11:55 AM,68.5,53.2,58,30.01,10.0,Calm,Calm,-,N/A,,Clear,0,2013-09-25 15:55:00
12:15 PM,70.0,53.6,56,30.01,10.0,East,3.5,-,N/A,,Clear,90,2013-09-25 16:15:00
12:35 PM,70.7,53.4,54,30.00,10.0,ENE,6.9,-,N/A,,Clear,70,2013-09-25 16:35:00
12:55 PM,72.3,54.1,53,29.99,10.0,Calm,Calm,-,N/A,,Clear,0,2013-09-25 16:55:00
1:15 PM,72.9,51.1,46,29.98,10.0,East,4.6,-,N/A,,Clear,80,2013-09-25 17:15:00
1:35 PM,74.7,52.3,46,29.97,10.0,NE,5.8,-,N/A,,Clear,50,2013-09-25 17:35:00
2:15 PM,74.1,50.0,43,29.97,10.0,North,5.8,-,N/A,,Clear,350,2013-09-25 18:15:00
2:55 PM,74.7,49.3,41,29.96,10.0,NE,4.6,-,N/A,,Clear,40,2013-09-25 18:55:00
3:15 PM,74.1,50.4,43,29.95,10.0,West,4.6,-,N/A,,Clear,280,2013-09-25 19:15:00
3:35 PM,74.1,49.8,42,29.95,10.0,Calm,Calm,-,N/A,,Clear,0,2013-09-25 19:35:00
3:55 PM,74.8,52.9,46,29.95,10.0,Calm,Calm,-,N/A,,Clear,0,2013-09-25 19:55:00
4:15 PM,75.2,52.9,46,29.95,10.0,NNW,5.8,-,N/A,,Clear,330,2013-09-25 20:15:00
4:35 PM,73.9,51.3,45,29.94,10.0,North,3.5,-,N/A,,Clear,360,2013-09-25 20:35:00
4:55 PM,73.8,50.5,44,29.94,10.0,East,3.5,-,N/A,,Clear,80,2013-09-25 20:55:00
5:15 PM,71.4,56.5,59,29.94,10.0,Calm,Calm,-,N/A,,Clear,0,2013-09-25 21:15:00
5:35 PM,68.2,60.6,77,29.94,10.0,WNW,3.5,-,N/A,,Clear,300,2013-09-25 21:35:00
5:55 PM,67.3,60.1,78,29.94,10.0,Calm,Calm,-,N/A,,Clear,0,2013-09-25 21:55:00
6:15 PM,66.2,61.9,86,29.94,10.0,Calm,Calm,-,N/A,,Clear,0,2013-09-25 22:15:00
6:35 PM,65.1,61.5,88,29.94,10.0,Calm,Calm,-,N/A,,Clear,0,2013-09-25 22:35:00
6:55 PM,63.7,62.6,96,29.94,10.0,Calm,Calm,-,N/A,,Clear,0,2013-09-25 22:55:00
7:15 PM,60.4,60.4,100,29.94,10.0,Calm,Calm,-,N/A,,Clear,0,2013-09-25 23:15:00
7:35 PM,60.3,60.3,100,29.94,10.0,Calm,Calm,-,N/A,,Clear,0,2013-09-25 23:35:00
7:55 PM,59.9,59.9,100,29.94,10.0,Calm,Calm,-,N/A,,Clear,0,2013-09-25 23:55:00
8:15 PM,59.2,59.2,100,29.95,10.0,Calm,Calm,-,N/A,,Clear,0,2013-09-26 00:15:00
8:35 PM,59.4,59.4,100,29.95,10.0,Calm,Calm,-,N/A,,Clear,0,2013-09-26 00:35:00
8:55 PM,58.5,58.5,100,29.95,10.0,Calm,Calm,-,N/A,,Clear,0,2013-09-26 00:55:00
9:15 PM,58.6,58.6,100,29.95,10.0,Calm,Calm,-,N/A,,Clear,0,2013-09-26 01:15:00
9:35 PM,58.5,58.5,100,29.96,10.0,Calm,Calm,-,N/A,,Clear,0,2013-09-26 01:35:00
9:55 PM,58.1,58.1,100,29.96,10.0,Calm,Calm,-,N/A,,Clear,0,2013-09-26 01:55:00
10:15 PM,59.0,59.0,100,29.96,10.0,Calm,Calm,-,N/A,,Clear,0,2013-09-26 02:15:00
10:35 PM,58.3,58.3,100,29.97,10.0,Calm,Calm,-,N/A,,Clear,0,2013-09-26 02:35:00
10:55 PM,57.9,57.9,100,29.97,10.0,Calm,Calm,-,N/A,,Clear,0,2013-09-26 02:55:00
11:15 PM,57.6,57.6,100,29.97,10.0,Calm,Calm,-,N/A,,Clear,0,2013-09-26 03:15:00
11:35 PM,57.6,57.6,100,29.97,10.0,Calm,Calm,-,N/A,,Clear,0,2013-09-26 03:35:00
11:55 PM,57.4,57.4,100,29.98,10.0,Calm,Calm,-,N/A,,Clear,0,2013-09-26 03:55:00